(242141) = 2003 AY93

Discovered at Palomar on 2003-01-15 by NEAT.

Orbit

Orbit type: Main Belt

Note: WebGL enabled browser required.

epoch2024-03-31.0
epoch JD2460400.5
perihelion date2023-12-26.94032
perihelion JD2460305.44032
argument of perihelion (°)182.89201
ascending node (°)242.60368
inclination (°)13.72373
eccentricity0.2184564
perihelion distance (AU)2.4040954
Tisserand w.r.t. Jupiter3.1
ΔV w.r.t. Earth (km/sec)10.6
semimajor axis (AU)3.0760861
mean anomaly (°)17.36611
mean daily motion (°/day)0.18268640
aphelion distance (AU)3.748
period (years)5.4
P-vector [x]0.41604049
P-vector [y]0.83899770
P-vector [z]0.35070382
Q-vector [x]-0.88461524
Q-vector [y]0.46274775
Q-vector [z]-0.05762280
absolute magnitude15.49
phase slope0.15
uncertainty0
referenceMPEC 2024-C115
observations used519
oppositions13
arc length (days)8207
first opposition used2001
last opposition used2024
residual rms (arc-secs)0.66
perturbers coarse indicatorM-v
perturbers precise indicator003Ek
first observation date used2001-08-22.0
last observation date used2024-02-10.0
computer nameMPCLINUX
JD of orbit computation2456376.455801
perihelion JD uncertainty (days)1.5523E-04
argument of perihelion uncertainty (°)4.9857E-05
ascending node uncertainty (°)2.6437E-05
inclination uncertainty (°)9.3578E-06
eccentricity uncertainty 9.7389E-08
perihelion distance uncertainty (AU)3.2514E-07
Minimum Orbit Intersection Distances (in AU)
for orbit epoch: 2460400.5, reference: E2024-G95
Mercury2.09519
Venus1.68272
Earth1.41811
Mars0.88512
Jupiter1.58888
Saturn6.26273
Uranus15.1184
Neptune26.8073

Observations

530 total observations over interval: 2001 08 22.33194 – 2024 02 10.292644
These data are available for download (format description).

Date (UT) J2000 RA J2000 Dec Magn Location Ref
2001 08 22.33194 23 42 19.98 +18 50 46.4 19.6   704 – Lincoln Laboratory ETS, New Mexico MPS 178390
2001 08 22.35648 23 42 19.13 +18 50 46.7 19.9   704 – Lincoln Laboratory ETS, New Mexico MPS 178390
2001 08 22.36872 23 42 18.78 +18 50 46.7 19.4   704 – Lincoln Laboratory ETS, New Mexico MPS 178390
2001 09 10.26360 23 30 26.07 +18 11 26.5 19.9   704 – Lincoln Laboratory ETS, New Mexico MPS 178390
2001 09 10.27783 23 30 25.27 +18 11 21.0 20.5   704 – Lincoln Laboratory ETS, New Mexico MPS 178390
2001 09 10.29176 23 30 24.69 +18 11 19.1 20.5   704 – Lincoln Laboratory ETS, New Mexico MPS 178390
2001 09 10.30569 23 30 24.11 +18 11 14.9 19.9   704 – Lincoln Laboratory ETS, New Mexico MPS 178390
2001 09 21.21874 23 22 16.50 +17 09 15.9 20.3 R 699 – Lowell Observatory-LONEOS MPS 178390
2001 09 21.24306 23 22 15.46 +17 09 06.3   699 – Lowell Observatory-LONEOS MPS 178390
2001 09 21.26718 23 22 14.33 +17 08 56.6   699 – Lowell Observatory-LONEOS MPS 178390
2001 09 21.29134 23 22 13.24 +17 08 48.0   699 – Lowell Observatory-LONEOS MPS 178390
2001 09 29.17632 23 16 37.23 +16 09 30.0 19.1   644 – Palomar Mountain/NEAT MPS 178390
2001 09 29.19760 23 16 36.35 +16 09 19.9 19.3   644 – Palomar Mountain/NEAT MPS 178391
2001 09 29.21871 23 16 35.47 +16 09 09.4 19.1   644 – Palomar Mountain/NEAT MPS 178391
2002 11 13.472780 08 49 41.821 +05 37 36.80 21.26 V 645 – Apache Point-Sloan Digital Sky Survey MPS 178391
2002 11 13.476252 08 49 41.950 +05 37 34.75 22.17   645 – Apache Point-Sloan Digital Sky Survey MPS 178391
2002 12 08.54787 08 58 02.17 +01 48 38.0 20.0   644 – Palomar Mountain/NEAT MPS 178391
2002 12 08.55834 08 58 02.17 +01 48 32.7 20.1   644 – Palomar Mountain/NEAT MPS 178391
2002 12 08.56878 08 58 02.14 +01 48 27.8 20.3   644 – Palomar Mountain/NEAT MPS 178391
2003 01 15.32120 08 40 50.34 -01 24 08.2 18.1 R 644 – Palomar Mountain/NEAT MPS 169148
2003 01 15.34605 08 40 49.08 -01 24 10.3 17.7 R 644 – Palomar Mountain/NEAT MPS 169148
2003 01 25.35530 08 32 15.27 -01 27 06.6 18.5 R 644 – Palomar Mountain/NEAT MPS 169148
2003 01 25.37639 08 32 14.12 -01 27 05.5 18.5 R 644 – Palomar Mountain/NEAT MPS 169148
2003 01 25.39752 08 32 12.97 -01 27 04.5 18.3 R 644 – Palomar Mountain/NEAT MPS 169148
2006 08 23.26859 20 59 55.54 +03 33 28.5 20.5 R 644 – Palomar Mountain/NEAT MPS 228960
2006 08 23.29014 20 59 54.57 +03 33 22.9 20.5 R 644 – Palomar Mountain/NEAT MPS 228960
2006 08 23.31176 20 59 53.64 +03 33 17.5 20.2 R 644 – Palomar Mountain/NEAT MPS 228960
2007 11 05.32106 05 33 44.26 +21 19 34.8 19.5   704 – Lincoln Laboratory ETS, New Mexico MPS 224740
2007 11 05.33319 05 33 44.00 +21 19 29.7 19.8   704 – Lincoln Laboratory ETS, New Mexico MPS 224740
2007 11 05.34531 05 33 43.84 +21 19 23.8 19.6   704 – Lincoln Laboratory ETS, New Mexico MPS 224740
2007 11 05.36955 05 33 43.40 +21 19 13.9 20.1   704 – Lincoln Laboratory ETS, New Mexico MPS 224740
2007 11 05.46119 05 33 41.99 +21 18 35.3 19.2 V 691 – Steward Observatory, Kitt Peak-Spacewatch MPS 228960
2007 11 05.47633 05 33 41.63 +21 18 28.9 19.7 V 691 – Steward Observatory, Kitt Peak-Spacewatch MPS 228960
2007 11 05.49147 05 33 41.37 +21 18 22.3 19.7 V 691 – Steward Observatory, Kitt Peak-Spacewatch MPS 228960
2007 11 14.31765 05 30 18.11 +20 13 01.6 19.1   704 – Lincoln Laboratory ETS, New Mexico MPS 226779
2007 11 14.33002 05 30 17.71 +20 12 55.8 19.7   704 – Lincoln Laboratory ETS, New Mexico MPS 226779
2007 11 14.34241 05 30 17.28 +20 12 50.8 19.5   704 – Lincoln Laboratory ETS, New Mexico MPS 226779
2007 11 14.35478 05 30 16.87 +20 12 44.4 19.5   704 – Lincoln Laboratory ETS, New Mexico MPS 226779
2007 11 14.36717 05 30 16.45 +20 12 38.7 19.5   704 – Lincoln Laboratory ETS, New Mexico MPS 226779
2007 11 17.43631 05 28 34.34 +19 48 48.9 19.7 V 691 – Steward Observatory, Kitt Peak-Spacewatch MPS 228233
2007 11 17.45395 05 28 33.68 +19 48 40.4 19.9 V 691 – Steward Observatory, Kitt Peak-Spacewatch MPS 228233
2007 11 17.47159 05 28 33.00 +19 48 32.2 19.6 V 691 – Steward Observatory, Kitt Peak-Spacewatch MPS 228233
2007 11 20.43274 05 26 41.28 +19 25 07.2 18.6 V 691 – Steward Observatory, Kitt Peak-Spacewatch MPS 228960
2007 11 20.45037 05 26 40.52 +19 24 58.9 18.6 V 691 – Steward Observatory, Kitt Peak-Spacewatch MPS 228960
2007 11 20.46802 05 26 39.77 +19 24 50.4 18.7 V 691 – Steward Observatory, Kitt Peak-Spacewatch MPS 228960
2007 11 21.26183 05 26 08.19 +19 18 31.3 18.2 V 703 – Catalina Sky Survey MPS 228960
2007 11 21.26609 05 26 07.98 +19 18 28.7 18.2 V 703 – Catalina Sky Survey MPS 228960
2007 11 21.27052 05 26 07.83 +19 18 26.5 18.4 V 703 – Catalina Sky Survey MPS 228960
2007 11 21.27482 05 26 07.62 +19 18 24.3 18.3 V 703 – Catalina Sky Survey MPS 228960
2007 11 28.74318 05 20 29.64 +18 18 02.8 18.5 R D29 – Purple Mountain Observatory, XuYi Station MPS 228960
2007 11 28.75826 05 20 28.88 +18 17 55.4 18.4 R D29 – Purple Mountain Observatory, XuYi Station MPS 228960
2007 11 28.77352 05 20 28.11 +18 17 48.5 18.4 R D29 – Purple Mountain Observatory, XuYi Station MPS 228960
2007 12 04.31328 05 15 46.12 +17 32 57.3 19.0   704 – Lincoln Laboratory ETS, New Mexico MPS 229748
2007 12 04.32603 05 15 45.41 +17 32 51.0 19.4   704 – Lincoln Laboratory ETS, New Mexico MPS 229748
2007 12 04.33878 05 15 44.76 +17 32 45.5 19.5   704 – Lincoln Laboratory ETS, New Mexico MPS 229748
2007 12 04.35203 05 15 44.02 +17 32 38.8 19.5   704 – Lincoln Laboratory ETS, New Mexico MPS 229748
2007 12 04.36479 05 15 43.32 +17 32 32.5 19.2   704 – Lincoln Laboratory ETS, New Mexico MPS 229748
2007 12 05.36329 05 14 50.60 +17 24 31.5 18.6 V G96 – Mt. Lemmon Survey MPS 229748
2007 12 05.36934 05 14 50.35 +17 24 28.3 18.6 V G96 – Mt. Lemmon Survey MPS 229748
2007 12 05.37532 05 14 50.02 +17 24 25.2 18.6 V G96 – Mt. Lemmon Survey MPS 229748
2007 12 05.38135 05 14 49.59 +17 24 20.8 18.0 V G96 – Mt. Lemmon Survey MPS 229748
2007 12 06.31051 05 14 00.56 +17 16 57.2 18.7 V G96 – Mt. Lemmon Survey MPS 229748
2007 12 06.32194 05 13 59.95 +17 16 51.7 18.8 V G96 – Mt. Lemmon Survey MPS 229748
2007 12 06.33333 05 13 59.30 +17 16 46.4 18.8 V G96 – Mt. Lemmon Survey MPS 229748
2007 12 06.34470 05 13 58.69 +17 16 41.1 18.7 V G96 – Mt. Lemmon Survey MPS 229748
2007 12 15.26574 05 06 04.06 +16 07 59.7 18.5 V 703 – Catalina Sky Survey MPS 231751
2007 12 15.27218 05 06 03.74 +16 07 57.1 18.7 V 703 – Catalina Sky Survey MPS 231751
2007 12 15.27866 05 06 03.42 +16 07 54.1 18.7 V 703 – Catalina Sky Survey MPS 231751
2007 12 15.28513 05 06 02.98 +16 07 51.2 19.1 V 703 – Catalina Sky Survey MPS 231751
2008 02 09.15654 04 51 54.17 +12 50 17.0 19.9   704 – Lincoln Laboratory ETS, New Mexico MPS 237450
2008 02 09.16878 04 51 54.58 +12 50 17.3 20.2   704 – Lincoln Laboratory ETS, New Mexico MPS 237450
2008 02 09.18126 04 51 54.86 +12 50 17.8 20.0   704 – Lincoln Laboratory ETS, New Mexico MPS 237450
2008 02 09.20571 04 51 55.66 +12 50 16.7 20.4   704 – Lincoln Laboratory ETS, New Mexico MPS 237450
2010 05 20.30723 15 54 54.54 -21 05 44.3 20.5 V G96 – Mt. Lemmon Survey MPS 327320
2010 05 20.31548 15 54 54.10 -21 05 42.0 20.6 V G96 – Mt. Lemmon Survey MPS 327320
2010 05 20.32384 15 54 53.71 -21 05 39.8 19.8 V G96 – Mt. Lemmon Survey MPS 327320
2010 05 20.33223 15 54 53.24 -21 05 37.3 20.3 V G96 – Mt. Lemmon Survey MPS 327320
2010 06 11.19046 15 38 44.41 -19 22 18.6 21.0 V G96 – Mt. Lemmon Survey MPS 330753
2010 06 11.19522 15 38 44.26 -19 22 17.5 20.7 V G96 – Mt. Lemmon Survey MPS 330753
2010 06 11.20005 15 38 44.05 -19 22 15.9 20.3 V G96 – Mt. Lemmon Survey MPS 330753
2010 06 11.20487 15 38 43.80 -19 22 14.4 20.1 V G96 – Mt. Lemmon Survey MPS 330753
2012 09 17.32746 01 21 11.15 +25 15 29.5 18.4 R 926 – Tenagra II Observatory, Nogales MPS 433173
2012 09 17.33911 01 21 10.80 +25 15 27.8 18.8 R 926 – Tenagra II Observatory, Nogales MPS 433173
2012 09 17.35077 01 21 10.45 +25 15 26.3 18.5 R 926 – Tenagra II Observatory, Nogales MPS 433173
2012 09 25.45503 01 16 59.72 +24 48 58.0 19.6   704 – Lincoln Laboratory ETS, New Mexico MPS 434003
2012 09 25.46972 01 16 59.14 +24 48 53.9 19.7   704 – Lincoln Laboratory ETS, New Mexico MPS 434003
2012 09 25.48445 01 16 58.65 +24 48 50.4 20.1   704 – Lincoln Laboratory ETS, New Mexico MPS 434003
